Time,TemperatureF,DewpointF,PressureIn,WindDirection,WindDirectionDegrees,WindSpeedMPH,WindSpeedGustMPH,Humidity,HourlyPrecipIn,Conditions,Clouds,dailyrainin,SolarRadiationWatts/m^2,SoftwareType,DateUTC
2013-08-01 00:03:00,69.0,68.0,-100.00,WNW,287,0.0,5.0,96,0.00,,,0.46,0.000000,,2013-08-01 04:03:00,
2013-08-01 00:33:00,70.0,69.0,-100.00,SSW,194,4.0,7.0,97,0.00,,,0.46,0.000000,,2013-08-01 04:33:00,
2013-08-01 00:43:00,70.0,69.0,-100.00,SSW,194,4.0,7.0,97,0.00,,,0.46,0.000000,,2013-08-01 04:43:00,
2013-08-01 00:53:00,70.0,69.0,-100.00,SSW,194,4.0,7.0,97,0.00,,,0.46,0.000000,,2013-08-01 04:53:00,
2013-08-01 01:02:00,70.0,69.0,-100.00,SSW,194,4.0,7.0,97,0.00,,,0.46,0.000000,,2013-08-01 05:02:00,
2013-08-01 01:33:00,72.0,70.0,-100.00,SSW,212,4.0,9.0,92,0.00,,,0.46,0.000000,,2013-08-01 05:33:00,
2013-08-01 01:43:00,72.0,70.0,-100.00,SSW,212,4.0,9.0,92,0.00,,,0.46,0.000000,,2013-08-01 05:43:00,
2013-08-01 01:53:00,72.0,70.0,-100.00,SSW,212,4.0,9.0,92,0.00,,,0.46,0.000000,,2013-08-01 05:53:00,
2013-08-01 02:02:00,72.0,70.0,-100.00,SSW,212,4.0,9.0,92,0.00,,,0.46,0.000000,,2013-08-01 06:02:00,
2013-08-01 02:33:00,70.0,68.0,-100.00,South,172,0.0,6.0,95,0.00,,,0.46,0.000000,,2013-08-01 06:33:00,
2013-08-01 02:43:00,70.0,68.0,-100.00,South,172,0.0,6.0,95,0.00,,,0.46,0.000000,,2013-08-01 06:43:00,
2013-08-01 02:53:00,70.0,68.0,-100.00,South,172,0.0,6.0,95,0.00,,,0.46,0.000000,,2013-08-01 06:53:00,
2013-08-01 03:03:00,70.0,68.0,-100.00,South,172,0.0,6.0,95,0.00,,,0.46,0.000000,,2013-08-01 07:03:00,
2013-08-01 03:32:00,70.0,69.0,-100.00,SSE,168,2.0,5.0,97,0.00,,,0.46,0.000000,,2013-08-01 07:32:00,
2013-08-01 03:43:00,70.0,69.0,-100.00,SSE,168,2.0,5.0,97,0.00,,,0.46,0.000000,,2013-08-01 07:43:00,
2013-08-01 03:55:00,70.0,69.0,-100.00,SSE,168,2.0,5.0,97,0.00,,,0.46,0.000000,,2013-08-01 07:55:00,
2013-08-01 04:05:00,70.0,69.0,-100.00,SE,141,1.0,6.0,97,0.00,,,0.46,0.000000,,2013-08-01 08:05:00,
2013-08-01 04:42:00,70.0,69.0,-100.00,SE,141,1.0,6.0,97,0.00,,,0.46,0.000000,,2013-08-01 08:42:00,
2013-08-01 04:48:00,70.0,69.0,-100.00,SE,141,1.0,6.0,97,0.00,,,0.46,0.000000,,2013-08-01 08:48:00,
2013-08-01 05:05:00,70.0,68.0,-100.00,SSW,207,4.0,9.0,94,0.00,,,0.46,0.000000,,2013-08-01 09:05:00,
2013-08-01 05:59:00,70.0,68.0,-100.00,SSW,207,4.0,9.0,94,0.00,,,0.46,0.000000,,2013-08-01 09:59:00,
2013-08-01 06:05:00,70.0,69.0,-100.00,SW,225,4.0,10.0,96,0.01,,,0.46,0.000000,,2013-08-01 10:05:00,
2013-08-01 07:01:00,70.0,69.0,-100.00,SW,225,4.0,10.0,96,0.01,,,0.46,0.000000,,2013-08-01 11:01:00,
2013-08-01 07:05:00,69.0,68.0,-100.00,SSW,199,3.0,10.0,98,0.00,,,0.38,1.000000,,2013-08-01 11:05:00,
2013-08-01 07:48:00,69.0,68.0,-100.00,SSW,199,3.0,10.0,98,0.00,,,0.38,1.000000,,2013-08-01 11:48:00,
2013-08-01 08:54:00,69.0,68.0,-100.00,WSW,240,3.0,9.0,97,0.00,,,0.36,25.000000,,2013-08-01 12:54:00,
2013-08-01 09:05:00,70.0,69.0,-100.00,WSW,253,3.0,9.0,96,0.00,,,0.34,35.000000,,2013-08-01 13:05:00,
2013-08-01 09:56:00,70.0,69.0,-100.00,WSW,253,3.0,9.0,96,0.00,,,0.34,35.000000,,2013-08-01 13:56:00,
2013-08-01 10:05:00,70.0,68.0,-100.00,WNW,282,5.0,9.0,95,0.00,,,0.24,103.000000,,2013-08-01 14:05:00,
2013-08-01 12:53:00,78.0,69.0,-100.00,North,5,5.0,9.0,75,0.00,,,0.12,660.000000,,2013-08-01 16:53:00,
2013-08-01 13:05:00,79.0,70.0,-100.00,NW,313,6.0,11.0,74,0.00,,,0.08,1049.000000,,2013-08-01 17:05:00,
2013-08-01 14:05:00,79.0,70.0,-100.00,North,0,7.0,12.0,73,0.00,,,0.07,776.000000,,2013-08-01 18:05:00,
2013-08-01 14:55:00,79.0,70.0,-100.00,North,0,7.0,12.0,73,0.00,,,0.07,776.000000,,2013-08-01 18:55:00,
2013-08-01 15:02:00,79.0,70.0,-100.00,North,0,7.0,12.0,73,0.00,,,0.07,776.000000,,2013-08-01 19:02:00,
2013-08-01 15:05:00,78.0,68.0,-100.00,North,358,5.0,17.0,71,0.00,,,0.01,617.000000,,2013-08-01 19:05:00,
2013-08-01 16:01:00,78.0,68.0,-100.00,North,358,5.0,17.0,71,0.00,,,0.01,617.000000,,2013-08-01 20:01:00,
2013-08-01 17:04:00,80.0,67.0,-100.00,North,6,6.0,14.0,64,0.00,,,0.01,826.000000,,2013-08-01 21:04:00,
2013-08-01 17:43:00,80.0,67.0,-100.00,NNE,12,4.0,12.0,65,0.00,,,0.01,571.000000,,2013-08-01 21:43:00,
2013-08-01 17:53:00,80.0,67.0,-100.00,NNE,12,4.0,12.0,65,0.00,,,0.01,571.000000,,2013-08-01 21:53:00,
2013-08-01 18:05:00,80.0,66.0,-100.00,North,6,4.0,13.0,62,0.00,,,0.01,509.000000,,2013-08-01 22:05:00,
2013-08-01 18:36:00,80.0,66.0,-100.00,North,6,4.0,13.0,62,0.00,,,0.01,509.000000,,2013-08-01 22:36:00,
2013-08-01 18:48:00,80.0,66.0,-100.00,North,6,4.0,13.0,62,0.00,,,0.01,509.000000,,2013-08-01 22:48:00,
2013-08-01 19:00:00,80.0,66.0,-100.00,North,6,4.0,13.0,62,0.00,,,0.01,509.000000,,2013-08-01 23:00:00,
2013-08-01 19:05:00,80.0,65.0,-100.00,North,359,4.0,12.0,60,0.00,,,0.01,358.000000,,2013-08-01 23:05:00,
2013-08-01 19:33:00,80.0,65.0,-100.00,North,359,4.0,12.0,60,0.00,,,0.01,358.000000,,2013-08-01 23:33:00,
2013-08-01 19:52:00,80.0,65.0,-100.00,North,359,4.0,12.0,60,0.00,,,0.01,358.000000,,2013-08-01 23:52:00,
2013-08-01 20:01:00,80.0,65.0,-100.00,North,359,4.0,12.0,60,0.00,,,0.01,358.000000,,2013-08-02 00:01:00,
2013-08-01 20:05:00,77.0,66.0,-100.00,North,9,3.0,8.0,68,0.00,,,0.01,157.000000,,2013-08-02 00:05:00,
2013-08-01 20:41:00,77.0,66.0,-100.00,North,9,3.0,8.0,68,0.00,,,0.01,157.000000,,2013-08-02 00:41:00,
2013-08-01 20:52:00,77.0,66.0,-100.00,North,9,3.0,8.0,68,0.00,,,0.01,157.000000,,2013-08-02 00:52:00,
2013-08-01 21:02:00,77.0,66.0,-100.00,North,9,3.0,8.0,68,0.00,,,0.01,157.000000,,2013-08-02 01:02:00,
2013-08-01 21:05:00,72.0,68.0,-100.00,NNW,346,0.0,8.0,86,0.00,,,0.01,18.000000,,2013-08-02 01:05:00,
2013-08-01 21:42:00,72.0,68.0,-100.00,NNW,346,0.0,8.0,86,0.00,,,0.01,18.000000,,2013-08-02 01:42:00,
2013-08-01 21:49:00,72.0,68.0,-100.00,NNW,346,0.0,8.0,86,0.00,,,0.01,18.000000,,2013-08-02 01:49:00,
2013-08-01 22:01:00,72.0,68.0,-100.00,NNW,346,0.0,8.0,86,0.00,,,0.01,18.000000,,2013-08-02 02:01:00,
2013-08-01 22:05:00,70.0,66.0,-100.00,North,359,3.0,6.0,87,0.00,,,0.01,0.000000,,2013-08-02 02:05:00,
2013-08-01 22:37:00,70.0,66.0,-100.00,North,359,3.0,6.0,87,0.00,,,0.01,0.000000,,2013-08-02 02:37:00,
2013-08-01 22:45:00,70.0,66.0,-100.00,North,359,3.0,6.0,87,0.00,,,0.01,0.000000,,2013-08-02 02:45:00,
2013-08-01 22:54:00,70.0,66.0,-100.00,North,359,3.0,6.0,87,0.00,,,0.01,0.000000,,2013-08-02 02:54:00,
2013-08-01 23:40:00,69.0,65.0,-100.00,North,356,3.0,7.0,88,0.00,,,0.01,0.000000,,2013-08-02 03:40:00,
2013-08-01 23:52:00,69.0,65.0,-100.00,North,356,3.0,7.0,88,0.00,,,0.01,0.000000,,2013-08-02 03:52:00,